Date,TemperatureHighF,TemperatureAvgF,TemperatureLowF,DewpointHighF,DewpointAvgF,DewpointLowF,HumidityHigh,HumidityAvg,HumidityLow,PressureMaxIn,PressureMinIn,WindSpeedMaxMPH,WindSpeedAvgMPH,GustSpeedMaxMPH,PrecipitationSumIn
2013-1-1,39.4,36.1,32.4,29.6,28.1,25.2,83,73,64,29.93,29.81,2,0,11,0.00
2013-1-2,34.1,28.5,24.7,24.3,16.2,9.8,74,60,43,30.13,29.89,10,1,21,0.00
2013-1-3,36.3,28.8,23.2,20.4,15.3,11.2,65,57,44,30.14,30.02,3,0,10,0.00
2013-1-4,40.9,32.2,27.7,24.0,21.1,19.3,71,64,49,30.08,29.97,5,0,18,0.00
2013-1-5,40.7,34.0,28.1,23.7,21.0,19.2,70,59,47,30.26,30.02,18,2,25,0.00
2013-1-6,45.2,39.1,33.0,29.1,26.0,21.5,72,60,47,30.07,29.91,6,0,10,0.00
2013-1-7,41.5,37.3,33.9,29.7,25.5,22.0,73,63,52,30.32,30.03,13,1,17,0.00
2013-1-8,48.7,39.5,30.8,31.9,27.2,22.7,74,61,51,30.30,30.24,8,2,14,0.00
2013-1-9,51.0,42.9,38.3,39.2,33.0,28.2,82,68,59,30.27,30.11,6,1,16,0.00
2013-1-10,50.2,42.5,36.0,30.2,27.2,24.8,70,55,38,30.49,30.27,16,2,18,0.00
2013-1-11,42.2,39.6,36.1,39.2,33.4,26.2,95,80,56,30.36,30.00,24,9,28,0.09
2013-1-12,54.0,46.2,39.4,51.1,43.9,38.0,95,92,82,30.07,29.98,14,4,19,0.00
2013-1-13,56.1,48.8,42.3,54.6,47.4,40.9,95,95,95,29.99,29.83,18,10,24,0.01
2013-1-14,58.4,48.8,37.2,56.9,44.1,31.3,95,85,61,30.21,29.83,10,1,20,0.20
2013-1-15,39.3,36.8,35.4,36.4,33.8,30.4,95,89,78,30.25,30.04,6,0,11,0.05
2013-1-16,39.4,35.0,32.1,38.0,33.5,30.8,95,95,84,30.05,29.75,2,0,11,0.85
2013-1-17,39.3,36.6,32.4,36.8,30.1,27.3,91,77,67,30.03,29.88,8,0,18,0.00
2013-1-18,34.1,30.1,25.6,29.1,15.6,8.0,88,56,36,30.38,29.96,17,2,26,0.00
2013-1-19,53.7,39.5,26.7,28.0,23.9,17.2,83,56,32,30.29,29.82,13,4,24,0.00
2013-1-20,57.1,42.6,29.0,31.5,19.3,7.6,54,40,19,29.95,29.69,17,2,26,0.00
2013-1-21,38.7,29.3,23.2,21.4,14.8,6.4,64,54,44,29.98,29.72,13,4,25,0.00
2013-1-22,22.2,15.6,9.1,4.9,-2.1,-7.0,63,45,29,30.19,29.84,16,2,24,0.00
2013-1-23,24.6,15.7,7.5,9.4,-0.4,-4.0,73,49,28,30.24,30.04,2,0,18,0.00
2013-1-24,24.9,17.1,12.6,14.5,7.2,-1.0,86,67,39,30.42,29.99,13,2,28,0.01
2013-1-25,18.4,15.4,11.9,14.8,6.9,-1.0,88,69,50,30.42,29.97,12,2,19,0.00
2013-1-26,28.4,22.5,16.8,24.4,19.5,13.6,92,88,84,30.34,29.99,3,0,11,0.02
2013-1-27,32.7,26.7,19.4,21.6,17.7,14.8,87,69,53,30.49,30.34,11,1,14,0.00
2013-1-28,48.7,34.5,27.7,45.4,31.4,18.9,95,89,65,30.36,29.94,10,3,14,0.19
2013-1-29,67.0,57.6,49.0,54.5,50.3,44.4,91,77,63,30.00,29.81,18,4,25,0.00
2013-1-30,66.7,58.1,54.0,60.3,54.7,50.2,95,89,71,29.82,29.08,24,7,47,1.30
2013-1-31,56.2,36.9,25.0,54.7,26.3,9.9,95,67,47,29.77,29.05,19,1,30,0.40